Aérodrome :
LOGIN :

S'inscrire | Disclaimer

   EN    FR    IT 

 










Légende :    VFR   VFR Marginal   IFR   IFR Intensif   IFR Très Intensif
Visi : 
Plafond : 
>= 8 km
>= 3000ft
5 à 8 km
1000 à 3000 ft
1500m à 5 km
500 à 1000 ft
800 à 1500m
200 à 500 ft
< 800m
< 200 ft
Symboles :   Orages  Brouillard  Fortes neiges  Fortes précipitations  Vent > 20 kt
SIGMETs :   Divers  Orages  Givrage  Turbulence  Onde Orograph.  Cendres Volcan.







- Altitude de l'aérodrome : 479 ft
- Code IATA : DOL
- Voir les cartes d'approche


LFRG - Deauville

DERNIER METAR :
  • 152230Z AUTO 26003KT 9999 OVC026 18/15 Q1019

METARs EXPIRÉS :
  • 152200Z AUTO 24006KT 9999 OVC026 19/15 Q1020
  • 152130Z AUTO 26003KT 9999 OVC027 19/16 Q1020
  • 152100Z AUTO VRB01KT 9999 OVC028 18/16 Q1020
  • 152030Z AUTO 29001KT 9999 OVC030 18/16 Q1020
  • 152000Z AUTO VRB01KT 9999 OVC031 19/16 Q1020 NOSIG

TAF TAF LFRG
Valide du 15 à 15h jusqu'au 16 à 00h UTC


151400Z 1515/1524 30005KT 9999 BKN025
PROB30 1522/1524 3000 BR
ATIS : +33 2 31 65 65 36
Pas de NOTAMs connus pour ce terrain.



MET'MAP, la Météo Aéronautique d'un coup d'oeil ! - Copyright ORBIFLY Décembre 2007 - Disclaimer

ORBIFLY MET'MAP TEAM :

Programmation & Développement : Alexandra Zaïnal
Conception & Développement : Baudouin d'Aumeries
Co-Programmation & Développement : Marc-Olivier Méhu
Soutien technique & logistique : Manuel Goepfert

Contact : metmap@orbifly.com




SOURCES & CREDITS :

   NOAA